Time,TemperatureF,DewpointF,PressureIn,WindDirection,WindDirectionDegrees,WindSpeedMPH,WindSpeedGustMPH,Humidity,HourlyPrecipIn,Conditions,Clouds,dailyrainin,SolarRadiationWatts/m^2,SoftwareType,DateUTC
2013-08-05 00:01:00,66.4,45.6,29.88,WNW,290,0.0,1.0,47,0.00,,---,0.00,0.00,VWS V14.01,2013-08-05 07:01:00,
2013-08-05 00:06:00,66.2,46.0,29.88,WNW,287,0.0,2.0,48,0.00,,---,0.00,0.00,VWS V14.01,2013-08-05 07:06:00,
2013-08-05 00:11:00,66.1,45.9,29.89,WNW,288,0.0,2.0,48,0.00,,---,0.00,0.00,VWS V14.01,2013-08-05 07:11:00,
2013-08-05 00:16:00,66.0,45.8,29.88,WNW,288,0.0,2.0,48,0.00,,---,0.00,0.00,VWS V14.01,2013-08-05 07:16:00,
2013-08-05 00:21:00,65.9,46.2,29.89,West,277,0.0,2.0,49,0.00,,---,0.00,0.00,VWS V14.01,2013-08-05 07:21:00,
2013-08-05 00:26:00,65.8,45.6,29.89,West,263,0.0,2.0,48,0.00,,---,0.00,0.00,VWS V14.01,2013-08-05 07:26:00,
2013-08-05 00:31:00,65.8,46.1,29.89,West,263,0.0,0.0,49,0.00,,---,0.00,0.00,VWS V14.01,2013-08-05 07:31:00,
2013-08-05 00:35:00,65.7,46.0,29.89,West,263,0.0,2.0,49,0.00,,---,0.00,0.00,VWS V14.01,2013-08-05 07:35:00,
2013-08-05 00:40:00,65.6,46.5,29.89,West,263,0.0,2.0,50,0.00,,---,0.00,0.00,VWS V14.01,2013-08-05 07:40:00,
2013-08-05 00:45:00,65.5,46.4,29.89,SSW,201,0.0,2.0,50,0.00,,---,0.00,0.00,VWS V14.01,2013-08-05 07:45:00,
2013-08-05 00:50:00,65.5,46.4,29.89,SW,229,0.0,2.0,50,0.00,,---,0.00,0.00,VWS V14.01,2013-08-05 07:50:00,
2013-08-05 00:55:00,65.6,46.5,29.89,SW,229,0.0,2.0,50,0.00,,---,0.00,0.00,VWS V14.01,2013-08-05 07:55:00,
2013-08-05 01:00:00,65.5,46.9,29.89,SW,229,0.0,0.0,51,0.00,,---,0.00,0.00,VWS V14.01,2013-08-05 08:00:00,
2013-08-05 01:05:00,65.4,46.8,29.89,SW,229,1.0,1.0,51,0.00,,---,0.00,0.00,VWS V14.01,2013-08-05 08:05:00,
2013-08-05 01:10:00,65.4,46.8,29.89,WSW,243,0.0,2.0,51,0.00,,---,0.00,0.00,VWS V14.01,2013-08-05 08:10:00,
2013-08-05 01:15:00,65.3,46.7,29.89,WSW,250,0.0,2.0,51,0.00,,---,0.00,0.00,VWS V14.01,2013-08-05 08:15:00,
2013-08-05 01:20:00,65.2,46.1,29.89,WSW,251,0.0,3.0,50,0.00,,---,0.00,0.00,VWS V14.01,2013-08-05 08:20:00,
2013-08-05 01:25:00,65.2,46.6,29.89,WSW,250,0.0,3.0,51,0.00,,---,0.00,0.00,VWS V14.01,2013-08-05 08:25:00,
2013-08-05 01:30:00,65.2,46.1,29.88,WSW,250,0.0,0.0,50,0.00,,---,0.00,0.00,VWS V14.01,2013-08-05 08:30:00,
2013-08-05 01:36:00,65.3,46.2,29.88,WSW,237,0.0,1.0,50,0.00,,---,0.00,0.00,VWS V14.01,2013-08-05 08:36:00,
2013-08-05 01:41:00,65.3,46.2,29.88,West,277,0.0,3.0,50,0.00,,---,0.00,0.00,VWS V14.01,2013-08-05 08:41:00,
2013-08-05 01:46:00,65.3,46.2,29.88,West,277,0.0,3.0,50,0.00,,---,0.00,0.00,VWS V14.01,2013-08-05 08:46:00,
2013-08-05 01:51:00,65.1,46.5,29.88,SSW,208,0.0,3.0,51,0.00,,---,0.00,0.00,VWS V14.01,2013-08-05 08:51:00,
2013-08-05 01:56:00,64.9,46.4,29.88,WSW,244,0.0,3.0,51,0.00,,---,0.00,0.00,VWS V14.01,2013-08-05 08:56:00,
2013-08-05 02:01:00,64.7,46.2,29.88,WSW,244,0.0,0.0,51,0.00,,---,0.00,0.00,VWS V14.01,2013-08-05 09:01:00,
2013-08-05 02:06:00,64.7,46.7,29.88,WSW,244,0.0,0.0,52,0.00,,---,0.00,0.00,VWS V14.01,2013-08-05 09:06:00,
2013-08-05 02:12:00,64.6,46.6,29.88,West,262,1.0,2.0,52,0.00,,---,0.00,0.00,VWS V14.01,2013-08-05 09:12:00,
2013-08-05 02:17:00,64.6,46.6,29.88,West,261,0.0,2.0,52,0.00,,---,0.00,0.00,VWS V14.01,2013-08-05 09:17:00,
2013-08-05 02:21:00,64.5,46.5,29.88,West,261,0.0,2.0,52,0.00,,---,0.00,0.00,VWS V14.01,2013-08-05 09:21:00,
2013-08-05 02:26:00,64.5,46.5,29.87,West,261,0.0,2.0,52,0.00,,---,0.00,0.00,VWS V14.01,2013-08-05 09:26:00,
2013-08-05 02:31:00,64.4,46.9,29.87,West,261,0.0,1.0,53,0.00,,---,0.00,0.00,VWS V14.01,2013-08-05 09:31:00,
2013-08-05 02:37:00,64.3,46.8,29.87,West,261,0.0,1.0,53,0.00,,---,0.00,0.00,VWS V14.01,2013-08-05 09:37:00,
2013-08-05 02:41:00,64.2,46.7,29.87,West,261,0.0,1.0,53,0.00,,---,0.00,0.00,VWS V14.01,2013-08-05 09:41:00,
2013-08-05 02:47:00,64.1,46.1,29.87,West,261,0.0,1.0,52,0.00,,---,0.00,0.00,VWS V14.01,2013-08-05 09:47:00,
2013-08-05 02:52:00,64.1,46.1,29.87,West,261,0.0,1.0,52,0.00,,---,0.00,0.00,VWS V14.01,2013-08-05 09:52:00,
2013-08-05 02:57:00,64.0,46.0,29.87,West,261,0.0,1.0,52,0.00,,---,0.00,0.00,VWS V14.01,2013-08-05 09:57:00,
2013-08-05 03:02:00,63.9,46.5,29.87,West,261,1.0,2.0,53,0.00,,---,0.00,0.00,VWS V14.01,2013-08-05 10:02:00,
2013-08-05 03:07:00,63.7,46.3,29.87,West,261,0.0,2.0,53,0.00,,---,0.00,0.00,VWS V14.01,2013-08-05 10:07:00,
2013-08-05 03:12:00,63.7,46.3,29.87,West,261,0.0,2.0,53,0.00,,---,0.00,0.00,VWS V14.01,2013-08-05 10:12:00,
2013-08-05 03:18:00,63.6,46.2,29.87,WSW,255,0.0,2.0,53,0.00,,---,0.00,0.00,VWS V14.01,2013-08-05 10:18:00,
2013-08-05 03:23:00,63.5,46.1,29.87,West,266,0.0,2.0,53,0.00,,---,0.00,0.00,VWS V14.01,2013-08-05 10:23:00,
2013-08-05 03:28:00,63.4,46.5,29.87,West,266,1.0,2.0,54,0.00,,---,0.00,0.00,VWS V14.01,2013-08-05 10:28:00,
2013-08-05 03:33:00,63.3,46.4,29.87,West,266,0.0,0.0,54,0.00,,---,0.00,0.00,VWS V14.01,2013-08-05 10:33:00,
2013-08-05 03:38:00,63.1,46.7,29.87,West,266,0.0,0.0,55,0.00,,---,0.00,0.00,VWS V14.01,2013-08-05 10:38:00,
2013-08-05 03:43:00,62.9,46.5,29.87,West,266,0.0,0.0,55,0.00,,---,0.00,0.00,VWS V14.01,2013-08-05 10:43:00,
2013-08-05 03:48:00,62.6,46.7,29.87,West,266,0.0,1.0,56,0.00,,---,0.00,0.00,VWS V14.01,2013-08-05 10:48:00,
2013-08-05 03:53:00,62.5,47.1,29.87,West,266,0.0,1.0,57,0.00,,---,0.00,0.00,VWS V14.01,2013-08-05 10:53:00,
2013-08-05 03:57:00,62.4,47.0,29.87,West,266,0.0,1.0,57,0.00,,---,0.00,0.00,VWS V14.01,2013-08-05 10:57:00,
2013-08-05 04:03:00,62.2,46.8,29.87,West,266,0.0,0.0,57,0.00,,---,0.00,0.00,VWS V14.01,2013-08-05 11:03:00,
2013-08-05 04:08:00,62.1,47.2,29.87,West,266,0.0,2.0,58,0.00,,---,0.00,0.00,VWS V14.01,2013-08-05 11:08:00,
2013-08-05 04:13:00,62.0,47.5,29.87,West,266,0.0,2.0,59,0.00,,---,0.00,0.00,VWS V14.01,2013-08-05 11:13:00,
2013-08-05 04:18:00,61.9,47.4,29.87,West,266,0.0,2.0,59,0.00,,---,0.00,0.00,VWS V14.01,2013-08-05 11:18:00,
2013-08-05 04:23:00,61.8,47.3,29.87,West,266,0.0,2.0,59,0.00,,---,0.00,0.00,VWS V14.01,2013-08-05 11:23:00,
2013-08-05 04:28:00,61.6,47.6,29.87,North,5,0.0,2.0,60,0.00,,---,0.00,0.00,VWS V14.01,2013-08-05 11:28:00,
2013-08-05 04:33:00,61.4,47.4,29.87,NNW,338,0.0,3.0,60,0.00,,---,0.00,0.00,VWS V14.01,2013-08-05 11:33:00,
2013-08-05 04:38:00,61.4,46.5,29.87,North,360,0.0,3.0,58,0.00,,---,0.00,0.00,VWS V14.01,2013-08-05 11:38:00,
2013-08-05 04:44:00,61.5,46.1,29.87,NNE,19,2.0,3.0,57,0.00,,---,0.00,0.00,VWS V14.01,2013-08-05 11:44:00,
2013-08-05 04:49:00,61.6,45.8,29.87,NW,323,1.0,4.0,56,0.00,,---,0.00,0.00,VWS V14.01,2013-08-05 11:49:00,
2013-08-05 04:54:00,61.6,45.8,29.87,North,5,1.0,4.0,56,0.00,,---,0.00,0.00,VWS V14.01,2013-08-05 11:54:00,
2013-08-05 04:59:00,61.6,45.8,29.87,NNE,32,2.0,4.0,56,0.00,,---,0.00,0.00,VWS V14.01,2013-08-05 11:59:00,
2013-08-05 05:04:00,61.6,45.8,29.87,North,355,1.0,2.0,56,0.00,,---,0.00,0.00,VWS V14.01,2013-08-05 12:04:00,
2013-08-05 05:09:00,61.5,45.7,29.87,North,5,3.0,3.0,56,0.00,,---,0.00,0.00,VWS V14.01,2013-08-05 12:09:00,
2013-08-05 05:14:00,61.6,45.8,29.87,NNE,13,1.0,3.0,56,0.00,,---,0.00,0.00,VWS V14.01,2013-08-05 12:14:00,
2013-08-05 05:19:00,61.7,45.9,29.87,NNW,333,1.0,3.0,56,0.00,,---,0.00,0.00,VWS V14.01,2013-08-05 12:19:00,
2013-08-05 05:24:00,61.7,45.9,29.87,NNW,332,0.0,3.0,56,0.00,,---,0.00,0.00,VWS V14.01,2013-08-05 12:24:00,
2013-08-05 05:29:00,61.6,46.2,29.87,North,5,1.0,3.0,57,0.00,,---,0.00,0.00,VWS V14.01,2013-08-05 12:29:00,
2013-08-05 05:35:00,61.5,46.6,29.87,NNE,22,1.0,3.0,58,0.00,,---,0.00,0.00,VWS V14.01,2013-08-05 12:35:00,
2013-08-05 05:39:00,61.4,46.0,29.87,North,5,0.0,3.0,57,0.00,,---,0.00,0.00,VWS V14.01,2013-08-05 12:39:00,
2013-08-05 05:44:00,61.4,46.0,29.87,NNW,334,1.0,5.0,57,0.00,,---,0.00,0.00,VWS V14.01,2013-08-05 12:44:00,
2013-08-05 05:50:00,61.1,45.8,29.87,North,360,3.0,5.0,57,0.00,,---,0.00,0.00,VWS V14.01,2013-08-05 12:50:00,
2013-08-05 05:56:00,60.9,45.6,29.87,North,9,0.0,5.0,57,0.00,,---,0.00,0.00,VWS V14.01,2013-08-05 12:56:00,
2013-08-05 06:01:00,60.7,45.8,29.88,NW,311,3.0,3.0,58,0.00,,---,0.00,0.00,VWS V14.01,2013-08-05 13:01:00,
2013-08-05 06:07:00,60.5,45.7,29.87,NW,317,2.0,4.0,58,0.00,,---,0.00,0.00,VWS V14.01,2013-08-05 13:07:00,
2013-08-05 06:12:00,60.4,45.6,29.88,North,360,2.0,4.0,58,0.00,,---,0.00,0.00,VWS V14.01,2013-08-05 13:12:00,
2013-08-05 06:17:00,60.4,45.6,29.88,NNE,15,1.0,5.0,58,0.00,,---,0.00,0.00,VWS V14.01,2013-08-05 13:17:00,
2013-08-05 06:22:00,60.4,45.6,29.88,NNW,338,2.0,5.0,58,0.00,,---,0.00,0.00,VWS V14.01,2013-08-05 13:22:00,
2013-08-05 06:27:00,60.4,45.6,29.88,NE,42,0.0,5.0,58,0.00,,---,0.00,0.00,VWS V14.01,2013-08-05 13:27:00,
2013-08-05 06:32:00,60.4,45.6,29.88,NNE,14,0.0,3.0,58,0.00,,---,0.00,0.00,VWS V14.01,2013-08-05 13:32:00,
2013-08-05 06:37:00,60.4,45.6,29.88,NNE,26,2.0,3.0,58,0.00,,---,0.00,0.00,VWS V14.01,2013-08-05 13:37:00,
2013-08-05 06:42:00,60.5,46.1,29.88,North,5,0.0,3.0,59,0.00,,---,0.00,0.00,VWS V14.01,2013-08-05 13:42:00,
2013-08-05 06:47:00,60.5,45.7,29.88,NNE,14,2.0,4.0,58,0.00,,---,0.00,0.00,VWS V14.01,2013-08-05 13:47:00,
2013-08-05 06:52:00,60.5,45.7,29.88,NNE,26,0.0,4.0,58,0.00,,---,0.00,0.00,VWS V14.01,2013-08-05 13:52:00,
2013-08-05 06:58:00,60.5,46.1,29.88,North,5,0.0,4.0,59,0.00,,---,0.00,0.00,VWS V14.01,2013-08-05 13:58:00,
2013-08-05 07:02:00,60.5,46.6,29.88,North,5,0.0,0.0,60,0.00,,---,0.00,0.00,VWS V14.01,2013-08-05 14:02:00,
2013-08-05 07:08:00,60.5,47.0,29.89,North,5,0.0,1.0,61,0.00,,---,0.00,0.00,VWS V14.01,2013-08-05 14:08:00,
2013-08-05 07:13:00,60.3,47.2,29.89,North,5,0.0,1.0,62,0.00,,---,0.00,0.00,VWS V14.01,2013-08-05 14:13:00,
2013-08-05 07:17:00,60.2,47.6,29.89,NNE,20,0.0,1.0,63,0.00,,---,0.00,0.00,VWS V14.01,2013-08-05 14:17:00,
2013-08-05 07:23:00,60.0,47.8,29.89,NNE,27,2.0,3.0,64,0.00,,---,0.00,0.00,VWS V14.01,2013-08-05 14:23:00,
2013-08-05 07:28:00,60.0,47.8,29.89,ENE,59,1.0,3.0,64,0.00,,---,0.00,0.00,VWS V14.01,2013-08-05 14:28:00,
2013-08-05 07:33:00,60.0,47.4,29.89,ENE,65,1.0,2.0,63,0.00,,---,0.00,0.00,VWS V14.01,2013-08-05 14:33:00,
2013-08-05 07:38:00,60.1,47.5,29.89,NNE,29,1.0,2.0,63,0.00,,---,0.00,0.00,VWS V14.01,2013-08-05 14:38:00,
2013-08-05 07:43:00,60.2,47.6,29.89,NNE,30,0.0,2.0,63,0.00,,---,0.00,0.00,VWS V14.01,2013-08-05 14:43:00,
2013-08-05 07:48:00,60.4,48.2,29.89,NE,44,0.0,3.0,64,0.00,,---,0.00,0.00,VWS V14.01,2013-08-05 14:48:00,
2013-08-05 07:53:00,60.6,48.0,29.89,NE,44,0.0,3.0,63,0.00,,---,0.00,0.00,VWS V14.01,2013-08-05 14:53:00,
2013-08-05 07:58:00,60.8,48.1,29.89,NE,38,1.0,3.0,63,0.00,,---,0.00,0.00,VWS V14.01,2013-08-05 14:58:00,
2013-08-05 08:03:00,61.1,48.4,29.89,NE,38,0.0,2.0,63,0.00,,---,0.00,0.00,VWS V14.01,2013-08-05 15:03:00,
2013-08-05 08:08:00,61.4,48.3,29.89,NE,40,0.0,2.0,62,0.00,,---,0.00,0.00,VWS V14.01,2013-08-05 15:08:00,
2013-08-05 08:13:00,61.8,48.7,29.89,NE,39,0.0,2.0,62,0.00,,---,0.00,0.00,VWS V14.01,2013-08-05 15:13:00,
2013-08-05 08:18:00,62.1,48.5,29.89,NE,36,2.0,2.0,61,0.00,,---,0.00,0.00,VWS V14.01,2013-08-05 15:18:00,
2013-08-05 08:23:00,62.4,48.8,29.89,NE,40,0.0,2.0,61,0.00,,---,0.00,0.00,VWS V14.01,2013-08-05 15:23:00,
2013-08-05 08:28:00,62.7,49.1,29.89,NE,43,0.0,2.0,61,0.00,,---,0.00,0.00,VWS V14.01,2013-08-05 15:28:00,
2013-08-05 08:33:00,63.1,49.0,29.89,NE,49,2.0,2.0,60,0.00,,---,0.00,0.00,VWS V14.01,2013-08-05 15:33:00,
2013-08-05 08:38:00,63.5,49.4,29.90,NE,49,0.0,2.0,60,0.00,,---,0.00,0.00,VWS V14.01,2013-08-05 15:38:00,
2013-08-05 08:43:00,63.9,49.3,29.90,NE,49,0.0,2.0,59,0.00,,---,0.00,0.00,VWS V14.01,2013-08-05 15:43:00,
2013-08-05 08:48:00,64.3,48.8,29.89,NE,49,0.0,2.0,57,0.00,,---,0.00,0.00,VWS V14.01,2013-08-05 15:48:00,
2013-08-05 08:53:00,64.7,48.7,29.89,North,11,0.0,3.0,56,0.00,,---,0.00,0.00,VWS V14.01,2013-08-05 15:53:00,
2013-08-05 08:58:00,65.2,49.1,29.90,North,11,0.0,3.0,56,0.00,,---,0.00,0.00,VWS V14.01,2013-08-05 15:58:00,
2013-08-05 09:04:00,65.7,49.1,29.89,North,11,0.0,0.0,55,0.00,,---,0.00,0.00,VWS V14.01,2013-08-05 16:04:00,
2013-08-05 09:08:00,66.2,50.1,29.89,NNW,344,0.0,1.0,56,0.00,,---,0.00,0.00,VWS V14.01,2013-08-05 16:08:00,
2013-08-05 09:14:00,66.9,49.7,29.89,WSW,246,0.0,3.0,54,0.00,,---,0.00,0.00,VWS V14.01,2013-08-05 16:14:00,
2013-08-05 09:19:00,67.6,49.9,29.89,WSW,246,0.0,3.0,53,0.00,,---,0.00,0.00,VWS V14.01,2013-08-05 16:19:00,
2013-08-05 09:24:00,68.2,49.4,29.89,NNW,327,1.0,4.0,51,0.00,,---,0.00,0.00,VWS V14.01,2013-08-05 16:24:00,
2013-08-05 09:29:00,68.7,49.9,29.89,SSE,161,1.0,4.0,51,0.00,,---,0.00,0.00,VWS V14.01,2013-08-05 16:29:00,
2013-08-05 09:34:00,69.0,49.6,29.89,SSE,159,0.0,3.0,50,0.00,,---,0.00,0.00,VWS V14.01,2013-08-05 16:34:00,
2013-08-05 09:39:00,69.7,49.2,29.89,SE,137,1.0,4.0,48,0.00,,---,0.00,0.00,VWS V14.01,2013-08-05 16:39:00,
2013-08-05 09:44:00,70.4,49.8,29.89,SSW,194,3.0,5.0,48,0.00,,---,0.00,0.00,VWS V14.01,2013-08-05 16:44:00,
2013-08-05 09:49:00,70.8,50.2,29.89,South,178,1.0,5.0,48,0.00,,---,0.00,0.00,VWS V14.01,2013-08-05 16:49:00,
2013-08-05 09:54:00,71.1,50.4,29.89,SE,142,0.0,5.0,48,0.00,,---,0.00,0.00,VWS V14.01,2013-08-05 16:54:00,
2013-08-05 09:59:00,71.2,50.0,29.89,SSE,153,0.0,6.0,47,0.00,,---,0.00,0.00,VWS V14.01,2013-08-05 16:59:00,
2013-08-05 10:04:00,71.3,49.5,29.89,WSW,254,0.0,5.0,46,0.00,,---,0.00,0.00,VWS V14.01,2013-08-05 17:04:00,
2013-08-05 10:09:00,71.6,49.8,29.89,SW,230,2.0,5.0,46,0.00,,---,0.00,0.00,VWS V14.01,2013-08-05 17:09:00,
2013-08-05 10:14:00,71.8,49.3,29.89,SW,234,2.0,5.0,45,0.00,,---,0.00,0.00,VWS V14.01,2013-08-05 17:14:00,
2013-08-05 10:20:00,72.0,49.5,29.89,SW,227,1.0,5.0,45,0.00,,---,0.00,0.00,VWS V14.01,2013-08-05 17:20:00,
2013-08-05 10:25:00,72.2,49.1,29.89,WSW,240,1.0,6.0,44,0.00,,---,0.00,0.00,VWS V14.01,2013-08-05 17:25:00,
2013-08-05 10:30:00,72.4,49.3,29.89,SW,235,0.0,6.0,44,0.00,,---,0.00,0.00,VWS V14.01,2013-08-05 17:30:00,
2013-08-05 10:35:00,72.6,49.5,29.89,SSE,163,0.0,5.0,44,0.00,,---,0.00,0.00,VWS V14.01,2013-08-05 17:35:00,
2013-08-05 10:41:00,72.9,49.7,29.89,West,269,4.0,5.0,44,0.00,,---,0.00,0.00,VWS V14.01,2013-08-05 17:41:00,
2013-08-05 10:45:00,73.5,51.5,29.89,SSW,206,5.0,5.0,46,0.00,,---,0.00,0.00,VWS V14.01,2013-08-05 17:45:00,
2013-08-05 10:51:00,73.7,49.8,29.89,SE,128,2.0,5.0,43,0.00,,---,0.00,0.00,VWS V14.01,2013-08-05 17:51:00,
2013-08-05 10:56:00,73.7,49.8,29.89,SW,234,0.0,5.0,43,0.00,,---,0.00,0.00,VWS V14.01,2013-08-05 17:56:00,
2013-08-05 11:01:00,73.9,50.0,29.89,SW,232,1.0,3.0,43,0.00,,---,0.00,0.00,VWS V14.01,2013-08-05 18:01:00,
2013-08-05 11:06:00,74.2,49.7,29.89,SSW,197,1.0,6.0,42,0.00,,---,0.00,0.00,VWS V14.01,2013-08-05 18:06:00,
2013-08-05 11:11:00,74.4,49.8,29.89,SW,229,0.0,6.0,42,0.00,,---,0.00,0.00,VWS V14.01,2013-08-05 18:11:00,
2013-08-05 11:16:00,74.6,50.0,29.89,South,171,3.0,6.0,42,0.00,,---,0.00,0.00,VWS V14.01,2013-08-05 18:16:00,
2013-08-05 11:21:00,74.9,49.6,29.88,SW,221,1.0,6.0,41,0.00,,---,0.00,0.00,VWS V14.01,2013-08-05 18:21:00,
2013-08-05 11:26:00,75.4,50.7,29.88,WSW,243,1.0,6.0,42,0.00,,---,0.00,0.00,VWS V14.01,2013-08-05 18:26:00,
2013-08-05 11:31:00,75.8,49.1,29.88,SSW,209,2.0,4.0,39,0.00,,---,0.00,0.00,VWS V14.01,2013-08-05 18:31:00,
2013-08-05 11:36:00,75.8,49.8,29.88,SW,232,1.0,6.0,40,0.00,,---,0.00,0.00,VWS V14.01,2013-08-05 18:36:00,
2013-08-05 11:41:00,76.0,48.6,29.88,WSW,240,0.0,6.0,38,0.00,,---,0.00,0.00,VWS V14.01,2013-08-05 18:41:00,
2013-08-05 11:47:00,76.1,49.4,29.88,SW,218,2.0,6.0,39,0.00,,---,0.00,0.00,VWS V14.01,2013-08-05 18:47:00,
2013-08-05 11:52:00,76.5,49.0,29.88,South,184,3.0,6.0,38,0.00,,---,0.00,0.00,VWS V14.01,2013-08-05 18:52:00,
2013-08-05 11:57:00,76.8,50.0,29.88,SSE,160,0.0,6.0,39,0.00,,---,0.00,0.00,VWS V14.01,2013-08-05 18:57:00,
2013-08-05 12:02:00,77.0,50.2,29.88,SSE,161,2.0,2.0,39,0.00,,---,0.00,0.00,VWS V14.01,2013-08-05 19:02:00,
2013-08-05 12:07:00,77.2,49.7,29.88,South,174,2.0,4.0,38,0.00,,---,0.00,0.00,VWS V14.01,2013-08-05 19:07:00,
2013-08-05 12:12:00,77.8,50.2,29.87,SW,219,4.0,6.0,38,0.00,,---,0.00,0.00,VWS V14.01,2013-08-05 19:12:00,
2013-08-05 12:17:00,78.1,49.7,29.88,SW,229,2.0,6.0,37,0.00,,---,0.00,0.00,VWS V14.01,2013-08-05 19:17:00,
2013-08-05 12:22:00,78.4,49.3,29.87,SW,221,3.0,7.0,36,0.00,,---,0.00,0.00,VWS V14.01,2013-08-05 19:22:00,
2013-08-05 12:27:00,78.7,49.5,29.87,ENE,59,1.0,7.0,36,0.00,,---,0.00,0.00,VWS V14.01,2013-08-05 19:27:00,
2013-08-05 12:32:00,78.8,49.6,29.87,East,89,2.0,4.0,36,0.00,,---,0.00,0.00,VWS V14.01,2013-08-05 19:32:00,
2013-08-05 12:37:00,79.1,48.3,29.87,WSW,250,0.0,4.0,34,0.00,,---,0.00,0.00,VWS V14.01,2013-08-05 19:37:00,
2013-08-05 12:42:00,79.5,50.2,29.87,South,169,2.0,6.0,36,0.00,,---,0.00,0.00,VWS V14.01,2013-08-05 19:42:00,
2013-08-05 12:47:00,80.1,50.0,29.86,SSW,196,1.0,6.0,35,0.00,,---,0.00,0.00,VWS V14.01,2013-08-05 19:47:00,
2013-08-05 12:52:00,80.6,49.7,29.86,SW,219,3.0,6.0,34,0.00,,---,0.00,0.00,VWS V14.01,2013-08-05 19:52:00,
2013-08-05 12:57:00,80.8,49.8,29.86,SSE,154,2.0,9.0,34,0.00,,---,0.00,0.00,VWS V14.01,2013-08-05 19:57:00,
2013-08-05 13:02:00,81.0,50.0,29.86,SSW,205,3.0,5.0,34,0.00,,---,0.00,0.00,VWS V14.01,2013-08-05 20:02:00,
2013-08-05 13:08:00,81.4,51.2,29.86,South,190,3.0,7.0,35,0.00,,---,0.00,0.00,VWS V14.01,2013-08-05 20:08:00,
2013-08-05 13:13:00,81.9,49.2,29.86,SSE,168,3.0,7.0,32,0.00,,---,0.00,0.00,VWS V14.01,2013-08-05 20:13:00,
2013-08-05 13:18:00,82.3,50.3,29.86,East,92,3.0,7.0,33,0.00,,---,0.00,0.00,VWS V14.01,2013-08-05 20:18:00,
2013-08-05 13:23:00,82.4,50.4,29.86,ESE,122,0.0,7.0,33,0.00,,---,0.00,0.00,VWS V14.01,2013-08-05 20:23:00,
2013-08-05 13:28:00,82.4,48.8,29.86,West,263,3.0,7.0,31,0.00,,---,0.00,0.00,VWS V14.01,2013-08-05 20:28:00,
2013-08-05 13:33:00,82.5,48.8,29.85,SSE,167,2.0,7.0,31,0.00,,---,0.00,0.00,VWS V14.01,2013-08-05 20:33:00,
2013-08-05 13:38:00,83.0,51.0,29.85,ENE,77,1.0,7.0,33,0.00,,---,0.00,0.00,VWS V14.01,2013-08-05 20:38:00,
2013-08-05 13:44:00,83.6,52.3,29.85,South,189,4.0,7.0,34,0.00,,---,0.00,0.00,VWS V14.01,2013-08-05 20:44:00,
2013-08-05 13:49:00,84.3,49.5,29.85,SE,146,4.0,8.0,30,0.00,,---,0.00,0.00,VWS V14.01,2013-08-05 20:49:00,
2013-08-05 13:54:00,85.0,48.3,29.85,South,171,0.0,9.0,28,0.00,,---,0.00,0.00,VWS V14.01,2013-08-05 20:54:00,
2013-08-05 13:59:00,85.3,49.5,29.85,SSW,199,3.0,9.0,29,0.00,,---,0.00,0.00,VWS V14.01,2013-08-05 20:59:00,
2013-08-05 14:05:00,85.2,49.4,29.84,SW,215,5.0,9.0,29,0.00,,---,0.00,0.00,VWS V14.01,2013-08-05 21:05:00,
2013-08-05 14:10:00,85.3,49.5,29.84,SW,235,9.0,9.0,29,0.00,,---,0.00,0.00,VWS V14.01,2013-08-05 21:10:00,
2013-08-05 14:15:00,85.0,48.3,29.84,SE,136,1.0,9.0,28,0.00,,---,0.00,0.00,VWS V14.01,2013-08-05 21:15:00,
2013-08-05 14:20:00,85.3,48.5,29.84,SE,143,0.0,9.0,28,0.00,,---,0.00,0.00,VWS V14.01,2013-08-05 21:20:00,
2013-08-05 14:25:00,85.9,50.0,29.83,SW,224,4.0,9.0,29,0.00,,---,0.00,0.00,VWS V14.01,2013-08-05 21:25:00,
2013-08-05 14:30:00,86.1,47.2,29.84,SW,224,2.0,9.0,26,0.00,,---,0.00,0.00,VWS V14.01,2013-08-05 21:30:00,
2013-08-05 14:35:00,86.3,47.4,29.83,SSE,164,0.0,8.0,26,0.00,,---,0.00,0.00,VWS V14.01,2013-08-05 21:35:00,
2013-08-05 14:40:00,86.6,46.6,29.83,South,173,1.0,8.0,25,0.00,,---,0.00,0.00,VWS V14.01,2013-08-05 21:40:00,
2013-08-05 14:45:00,86.5,47.6,29.83,SE,127,6.0,8.0,26,0.00,,---,0.00,0.00,VWS V14.01,2013-08-05 21:45:00,
2013-08-05 14:50:00,86.7,46.7,29.83,SW,214,0.0,8.0,25,0.00,,---,0.00,0.00,VWS V14.01,2013-08-05 21:50:00,
2013-08-05 14:55:00,87.3,49.3,29.83,ESE,117,0.0,8.0,27,0.00,,---,0.00,0.00,VWS V14.01,2013-08-05 21:55:00,
2013-08-05 15:01:00,88.0,48.8,29.82,SSE,157,2.0,2.0,26,0.00,,---,0.00,0.00,VWS V14.01,2013-08-05 22:01:00,
2013-08-05 15:06:00,88.2,48.0,29.82,SSW,208,1.0,5.0,25,0.00,,---,0.00,0.00,VWS V14.01,2013-08-05 22:06:00,
2013-08-05 15:11:00,88.1,50.0,29.82,SE,130,0.0,5.0,27,0.00,,---,0.00,0.00,VWS V14.01,2013-08-05 22:11:00,
2013-08-05 15:16:00,87.4,45.1,29.82,WNW,286,0.0,7.0,23,0.00,,---,0.00,0.00,VWS V14.01,2013-08-05 22:16:00,
2013-08-05 15:21:00,87.1,48.1,29.82,SSE,167,0.0,7.0,26,0.00,,---,0.00,0.00,VWS V14.01,2013-08-05 22:21:00,
2013-08-05 15:27:00,87.2,49.2,29.82,South,171,0.0,7.0,27,0.00,,---,0.00,0.00,VWS V14.01,2013-08-05 22:27:00,
2013-08-05 15:32:00,87.6,47.5,29.81,SSW,203,2.0,5.0,25,0.00,,---,0.00,0.00,VWS V14.01,2013-08-05 22:32:00,
2013-08-05 15:37:00,87.9,45.5,29.81,NE,47,1.0,5.0,23,0.00,,---,0.00,0.00,VWS V14.01,2013-08-05 22:37:00,
2013-08-05 15:42:00,87.7,44.2,29.81,South,186,6.0,7.0,22,0.00,,---,0.00,0.00,VWS V14.01,2013-08-05 22:42:00,
2013-08-05 15:47:00,87.6,46.4,29.81,SSE,151,3.0,7.0,24,0.00,,---,0.00,0.00,VWS V14.01,2013-08-05 22:47:00,
2013-08-05 15:52:00,87.7,44.2,29.81,SW,234,4.0,8.0,22,0.00,,---,0.00,0.00,VWS V14.01,2013-08-05 22:52:00,
2013-08-05 15:57:00,87.3,41.4,29.81,SSE,155,1.0,8.0,20,0.00,,---,0.00,0.00,VWS V14.01,2013-08-05 22:57:00,
2013-08-05 16:02:00,86.8,39.6,29.81,SE,140,3.0,8.0,19,0.00,,---,0.00,0.00,VWS V14.01,2013-08-05 23:02:00,
2013-08-05 16:07:00,87.2,40.0,29.81,WSW,251,1.0,8.0,19,0.00,,---,0.00,0.00,VWS V14.01,2013-08-05 23:07:00,
2013-08-05 16:12:00,87.5,40.2,29.81,South,188,6.0,8.0,19,0.00,,---,0.00,0.00,VWS V14.01,2013-08-05 23:12:00,
2013-08-05 16:17:00,87.3,40.0,29.81,SW,221,0.0,8.0,19,0.00,,---,0.00,0.00,VWS V14.01,2013-08-05 23:17:00,
2013-08-05 16:22:00,87.4,41.5,29.81,South,171,5.0,8.0,20,0.00,,---,0.00,0.00,VWS V14.01,2013-08-05 23:22:00,
2013-08-05 16:27:00,87.9,37.7,29.80,SSW,202,1.0,8.0,17,0.00,,---,0.00,0.00,VWS V14.01,2013-08-05 23:27:00,
2013-08-05 16:32:00,88.4,38.1,29.80,SW,217,3.0,7.0,17,0.00,,---,0.00,0.00,VWS V14.01,2013-08-05 23:32:00,
2013-08-05 16:37:00,88.3,39.5,29.80,South,190,6.0,10.0,18,0.00,,---,0.00,0.00,VWS V14.01,2013-08-05 23:37:00,
2013-08-05 16:42:00,88.0,40.6,29.80,SSE,165,5.0,10.0,19,0.00,,---,0.00,0.00,VWS V14.01,2013-08-05 23:42:00,
2013-08-05 16:47:00,88.2,37.9,29.80,South,177,4.0,10.0,17,0.00,,---,0.00,0.00,VWS V14.01,2013-08-05 23:47:00,
2013-08-05 16:52:00,88.6,36.7,29.80,SSW,198,7.0,10.0,16,0.00,,---,0.00,0.00,VWS V14.01,2013-08-05 23:52:00,
2013-08-05 16:57:00,88.8,38.4,29.80,SE,126,4.0,10.0,17,0.00,,---,0.00,0.00,VWS V14.01,2013-08-05 23:57:00,
2013-08-05 17:02:00,89.0,37.0,29.80,SSE,161,9.0,9.0,16,0.00,,---,0.00,0.00,VWS V14.01,2013-08-06 00:02:00,
2013-08-05 17:07:00,88.7,38.3,29.80,WSW,239,6.0,11.0,17,0.00,,---,0.00,0.00,VWS V14.01,2013-08-06 00:07:00,
2013-08-05 17:13:00,88.6,36.7,29.80,SSE,167,8.0,11.0,16,0.00,,---,0.00,0.00,VWS V14.01,2013-08-06 00:13:00,
2013-08-05 17:18:00,88.6,36.7,29.80,South,185,5.0,13.0,16,0.00,,---,0.00,0.00,VWS V14.01,2013-08-06 00:18:00,
2013-08-05 17:23:00,88.3,34.8,29.80,South,178,3.0,16.0,15,0.00,,---,0.00,0.00,VWS V14.01,2013-08-06 00:23:00,
2013-08-05 17:28:00,87.6,35.9,29.80,SSW,194,3.0,16.0,16,0.00,,---,0.00,0.00,VWS V14.01,2013-08-06 00:28:00,
2013-08-05 17:33:00,87.6,37.5,29.80,SSE,166,3.0,10.0,17,0.00,,---,0.00,0.00,VWS V14.01,2013-08-06 00:33:00,
2013-08-05 17:38:00,87.5,35.8,29.80,SSW,199,3.0,13.0,16,0.00,,---,0.00,0.00,VWS V14.01,2013-08-06 00:38:00,
2013-08-05 17:43:00,87.6,35.9,29.80,SE,136,6.0,13.0,16,0.00,,---,0.00,0.00,VWS V14.01,2013-08-06 00:43:00,
2013-08-05 17:48:00,87.6,35.9,29.80,SSW,213,5.0,13.0,16,0.00,,---,0.00,0.00,VWS V14.01,2013-08-06 00:48:00,
2013-08-05 17:54:00,86.8,35.3,29.80,South,173,8.0,13.0,16,0.00,,---,0.00,0.00,VWS V14.01,2013-08-06 00:54:00,
2013-08-05 17:59:00,86.2,36.3,29.80,SE,144,6.0,13.0,17,0.00,,---,0.00,0.00,VWS V14.01,2013-08-06 00:59:00,
2013-08-05 18:04:00,86.1,34.7,29.80,SSW,196,7.0,11.0,16,0.00,,---,0.00,0.00,VWS V14.01,2013-08-06 01:04:00,
2013-08-05 18:09:00,85.8,36.0,29.80,SSW,192,2.0,13.0,17,0.00,,---,0.00,0.00,VWS V14.01,2013-08-06 01:09:00,
2013-08-05 18:14:00,85.8,36.0,29.80,South,177,5.0,13.0,17,0.00,,---,0.00,0.00,VWS V14.01,2013-08-06 01:14:00,
2013-08-05 18:19:00,85.8,37.4,29.80,West,261,5.0,13.0,18,0.00,,---,0.00,0.00,VWS V14.01,2013-08-06 01:19:00,
2013-08-05 18:24:00,85.7,37.4,29.80,South,170,3.0,13.0,18,0.00,,---,0.00,0.00,VWS V14.01,2013-08-06 01:24:00,
2013-08-05 18:29:00,85.5,35.8,29.80,WSW,242,3.0,13.0,17,0.00,,---,0.00,0.00,VWS V14.01,2013-08-06 01:29:00,
2013-08-05 18:34:00,84.7,35.1,29.80,SW,235,4.0,11.0,17,0.00,,---,0.00,0.00,VWS V14.01,2013-08-06 01:34:00,
2013-08-05 18:40:00,83.9,35.9,29.80,WSW,246,6.0,12.0,18,0.00,,---,0.00,0.00,VWS V14.01,2013-08-06 01:40:00,
2013-08-05 18:45:00,83.4,35.5,29.80,SW,223,5.0,12.0,18,0.00,,---,0.00,0.00,VWS V14.01,2013-08-06 01:45:00,
2013-08-05 18:50:00,83.0,36.5,29.80,SSW,209,4.0,12.0,19,0.00,,---,0.00,0.00,VWS V14.01,2013-08-06 01:50:00,
2013-08-05 18:55:00,82.9,36.5,29.80,South,182,5.0,12.0,19,0.00,,---,0.00,0.00,VWS V14.01,2013-08-06 01:55:00,
2013-08-05 19:00:00,82.8,36.4,29.81,South,190,6.0,12.0,19,0.00,,---,0.00,0.00,VWS V14.01,2013-08-06 02:00:00,
2013-08-05 19:05:00,82.7,37.6,29.81,South,175,7.0,8.0,20,0.00,,---,0.00,0.00,VWS V14.01,2013-08-06 02:05:00,
2013-08-05 19:10:00,82.7,37.6,29.81,SSE,165,8.0,8.0,20,0.00,,---,0.00,0.00,VWS V14.01,2013-08-06 02:10:00,
2013-08-05 19:15:00,82.6,38.8,29.81,SSE,151,5.0,8.0,21,0.00,,---,0.00,0.00,VWS V14.01,2013-08-06 02:15:00,
2013-08-05 19:20:00,82.6,38.8,29.81,South,169,6.0,8.0,21,0.00,,---,0.00,0.00,VWS V14.01,2013-08-06 02:20:00,
2013-08-05 19:25:00,82.0,38.2,29.82,SSW,199,4.0,11.0,21,0.00,,---,0.00,0.00,VWS V14.01,2013-08-06 02:25:00,
2013-08-05 19:30:00,81.6,37.9,29.82,SW,236,5.0,11.0,21,0.00,,---,0.00,0.00,VWS V14.01,2013-08-06 02:30:00,
2013-08-05 19:35:00,81.0,38.6,29.82,SW,227,4.0,5.0,22,0.00,,---,0.00,0.00,VWS V14.01,2013-08-06 02:35:00,
2013-08-05 19:40:00,80.4,39.2,29.82,South,189,10.0,10.0,23,0.00,,---,0.00,0.00,VWS V14.01,2013-08-06 02:40:00,
2013-08-05 19:45:00,79.9,38.8,29.82,SSW,200,1.0,10.0,23,0.00,,---,0.00,0.00,VWS V14.01,2013-08-06 02:45:00,
2013-08-05 19:50:00,79.5,39.6,29.83,South,169,3.0,10.0,24,0.00,,---,0.00,0.00,VWS V14.01,2013-08-06 02:50:00,
2013-08-05 19:55:00,79.3,39.4,29.83,SSE,164,1.0,10.0,24,0.00,,---,0.00,0.00,VWS V14.01,2013-08-06 02:55:00,
2013-08-05 20:00:00,79.1,39.2,29.83,SSE,167,2.0,2.0,24,0.00,,---,0.00,0.00,VWS V14.01,2013-08-06 03:00:00,
2013-08-05 20:05:00,78.8,39.0,29.83,SSW,192,4.0,5.0,24,0.00,,---,0.00,0.00,VWS V14.01,2013-08-06 03:05:00,
2013-08-05 20:11:00,78.4,39.7,29.83,SW,221,0.0,7.0,25,0.00,,---,0.00,0.00,VWS V14.01,2013-08-06 03:11:00,
2013-08-05 20:16:00,78.0,39.4,29.83,SSW,194,3.0,7.0,25,0.00,,---,0.00,0.00,VWS V14.01,2013-08-06 03:16:00,
2013-08-05 20:21:00,77.6,40.0,29.84,SSE,155,4.0,7.0,26,0.00,,---,0.00,0.00,VWS V14.01,2013-08-06 03:21:00,
2013-08-05 20:26:00,77.3,39.8,29.84,SSW,202,2.0,7.0,26,0.00,,---,0.00,0.00,VWS V14.01,2013-08-06 03:26:00,
2013-08-05 20:31:00,76.9,40.4,29.84,SW,221,2.0,3.0,27,0.00,,---,0.00,0.00,VWS V14.01,2013-08-06 03:31:00,
2013-08-05 20:36:00,76.5,41.0,29.84,SSW,205,4.0,4.0,28,0.00,,---,0.00,0.00,VWS V14.01,2013-08-06 03:36:00,
2013-08-05 20:41:00,76.2,40.8,29.84,South,188,0.0,4.0,28,0.00,,---,0.00,0.00,VWS V14.01,2013-08-06 03:41:00,
2013-08-05 20:46:00,75.9,41.4,29.84,South,183,1.0,4.0,29,0.00,,---,0.00,0.00,VWS V14.01,2013-08-06 03:46:00,
2013-08-05 20:51:00,75.5,42.8,29.84,South,175,0.0,4.0,31,0.00,,---,0.00,0.00,VWS V14.01,2013-08-06 03:51:00,
2013-08-05 20:56:00,75.0,43.2,29.84,SW,217,0.0,4.0,32,0.00,,---,0.00,0.00,VWS V14.01,2013-08-06 03:56:00,
2013-08-05 21:01:00,74.4,43.5,29.85,SSW,209,0.0,1.0,33,0.00,,---,0.00,0.00,VWS V14.01,2013-08-06 04:01:00,
2013-08-05 21:06:00,74.0,43.1,29.85,SSW,211,1.0,2.0,33,0.00,,---,0.00,0.00,VWS V14.01,2013-08-06 04:06:00,
2013-08-05 21:11:00,73.7,44.4,29.85,SW,223,0.0,4.0,35,0.00,,---,0.00,0.00,VWS V14.01,2013-08-06 04:11:00,
2013-08-05 21:16:00,73.4,44.1,29.85,WSW,252,0.0,4.0,35,0.00,,---,0.00,0.00,VWS V14.01,2013-08-06 04:16:00,
2013-08-05 21:21:00,73.2,43.9,29.85,SSW,207,2.0,4.0,35,0.00,,---,0.00,0.00,VWS V14.01,2013-08-06 04:21:00,
2013-08-05 21:26:00,72.9,45.1,29.85,SW,229,3.0,4.0,37,0.00,,---,0.00,0.00,VWS V14.01,2013-08-06 04:26:00,
2013-08-05 21:31:00,72.7,45.7,29.85,SW,234,2.0,2.0,38,0.00,,---,0.00,0.00,VWS V14.01,2013-08-06 04:31:00,
2013-08-05 21:36:00,72.7,45.7,29.85,WSW,237,1.0,4.0,38,0.00,,---,0.00,0.00,VWS V14.01,2013-08-06 04:36:00,
2013-08-05 21:41:00,72.6,46.2,29.85,SW,234,0.0,4.0,39,0.00,,---,0.00,0.00,VWS V14.01,2013-08-06 04:41:00,
2013-08-05 21:46:00,72.3,46.7,29.85,SW,234,0.0,4.0,40,0.00,,---,0.00,0.00,VWS V14.01,2013-08-06 04:46:00,
2013-08-05 21:51:00,72.0,47.0,29.85,SW,234,0.0,4.0,41,0.00,,---,0.00,0.00,VWS V14.01,2013-08-06 04:51:00,
2013-08-05 21:56:00,71.5,47.2,29.85,SW,234,2.0,4.0,42,0.00,,---,0.00,0.00,VWS V14.01,2013-08-06 04:56:00,
2013-08-05 22:01:00,71.2,48.2,29.86,SW,234,1.0,1.0,44,0.00,,---,0.00,0.00,VWS V14.01,2013-08-06 05:01:00,
2013-08-05 22:06:00,71.2,48.2,29.86,WSW,249,0.0,4.0,44,0.00,,---,0.00,0.00,VWS V14.01,2013-08-06 05:06:00,
2013-08-05 22:11:00,71.3,48.3,29.85,SW,229,0.0,4.0,44,0.00,,---,0.00,0.00,VWS V14.01,2013-08-06 05:11:00,
2013-08-05 22:16:00,71.3,48.3,29.86,SW,229,1.0,4.0,44,0.00,,---,0.00,0.00,VWS V14.01,2013-08-06 05:16:00,
2013-08-05 22:21:00,71.2,48.2,29.86,SW,229,0.0,4.0,44,0.00,,---,0.00,0.00,VWS V14.01,2013-08-06 05:21:00,
2013-08-05 22:26:00,71.2,48.8,29.86,WSW,246,2.0,4.0,45,0.00,,---,0.00,0.00,VWS V14.01,2013-08-06 05:26:00,
2013-08-05 22:31:00,71.1,48.7,29.86,SW,233,1.0,1.0,45,0.00,,---,0.00,0.00,VWS V14.01,2013-08-06 05:31:00,
2013-08-05 22:36:00,70.9,49.1,29.86,WSW,245,0.0,3.0,46,0.00,,---,0.00,0.00,VWS V14.01,2013-08-06 05:36:00,
2013-08-05 22:41:00,70.7,48.9,29.86,WSW,245,0.0,3.0,46,0.00,,---,0.00,0.00,VWS V14.01,2013-08-06 05:41:00,
2013-08-05 22:46:00,70.6,49.4,29.86,SW,235,0.0,3.0,47,0.00,,---,0.00,0.00,VWS V14.01,2013-08-06 05:46:00,
2013-08-05 22:51:00,70.3,49.7,29.86,SW,235,0.0,3.0,48,0.00,,---,0.00,0.00,VWS V14.01,2013-08-06 05:51:00,
2013-08-05 22:56:00,69.7,49.2,29.86,SW,235,0.0,3.0,48,0.00,,---,0.00,0.00,VWS V14.01,2013-08-06 05:56:00,
2013-08-05 23:01:00,69.0,49.6,29.86,SW,235,3.0,3.0,50,0.00,,---,0.00,0.00,VWS V14.01,2013-08-06 06:01:00,
2013-08-05 23:06:00,69.0,50.1,29.86,SW,235,1.0,3.0,51,0.00,,---,0.00,0.00,VWS V14.01,2013-08-06 06:06:00,
2013-08-05 23:11:00,69.2,50.3,29.86,SW,234,1.0,3.0,51,0.00,,---,0.00,0.00,VWS V14.01,2013-08-06 06:11:00,
2013-08-05 23:16:00,69.2,50.3,29.86,SW,234,0.0,3.0,51,0.00,,---,0.00,0.00,VWS V14.01,2013-08-06 06:16:00,
2013-08-05 23:21:00,69.2,50.3,29.86,SW,229,1.0,3.0,51,0.00,,---,0.00,0.00,VWS V14.01,2013-08-06 06:21:00,
2013-08-05 23:26:00,69.2,50.3,29.86,SW,229,1.0,3.0,51,0.00,,---,0.00,0.00,VWS V14.01,2013-08-06 06:26:00,
2013-08-05 23:31:00,69.0,50.7,29.86,SW,229,1.0,3.0,52,0.00,,---,0.00,0.00,VWS V14.01,2013-08-06 06:31:00,
2013-08-05 23:36:00,68.9,50.6,29.86,West,261,0.0,3.0,52,0.00,,---,0.00,0.00,VWS V14.01,2013-08-06 06:36:00,
2013-08-05 23:41:00,68.7,50.4,29.86,West,261,0.0,3.0,52,0.00,,---,0.00,0.00,VWS V14.01,2013-08-06 06:41:00,
2013-08-05 23:46:00,68.2,50.9,29.86,West,261,1.0,3.0,54,0.00,,---,0.00,0.00,VWS V14.01,2013-08-06 06:46:00,
2013-08-05 23:51:00,67.7,51.0,29.86,West,261,1.0,3.0,55,0.00,,---,0.00,0.00,VWS V14.01,2013-08-06 06:51:00,
2013-08-05 23:56:00,67.4,50.7,29.86,WSW,243,1.0,3.0,55,0.00,,---,0.00,0.00,VWS V14.01,2013-08-06 06:56:00,